TimeEST,TemperatureF,Dew PointF,Humidity,Sea Level PressureIn,VisibilityMPH,Wind Direction,Wind SpeedMPH,Gust SpeedMPH,PrecipitationIn,Events,Conditions,WindDirDegrees,DateUTC
12:15 AM,44.6,41.0,87,29.33,8.0,SW,16.1,27.6,N/A,Rain,Light Rain,230,2013-01-31 05:15:00
12:35 AM,44.6,39.2,81,29.34,10.0,SW,15.0,21.9,N/A,,Scattered Clouds,230,2013-01-31 05:35:00
12:55 AM,44.6,39.2,81,29.34,9.0,WSW,19.6,23.0,N/A,Rain,Light Rain,250,2013-01-31 05:55:00
1:15 AM,39.2,35.6,87,29.40,9.0,West,17.3,40.3,0.02,Rain,Light Rain,280,2013-01-31 06:15:00
1:55 AM,35.6,35.6,100,29.44,4.0,West,21.9,28.8,0.06,,Overcast,280,2013-01-31 06:55:00
2:15 AM,35.6,33.8,93,29.46,7.0,West,21.9,34.5,0.01,Rain,Light Rain,260,2013-01-31 07:15:00
2:35 AM,35.6,32.0,87,29.47,10.0,West,23.0,40.3,0.01,Rain,Light Rain,260,2013-01-31 07:35:00
2:55 AM,35.6,32.0,87,29.48,9.0,West,28.8,40.3,0.02,,Mostly Cloudy,260,2013-01-31 07:55:00
3:15 AM,33.8,32.0,93,29.50,3.0,West,20.7,35.7,0.04,Rain,Light Rain,260,2013-01-31 08:15:00
3:35 AM,33.8,30.2,87,29.50,10.0,WSW,19.6,40.3,0.05,,Overcast,250,2013-01-31 08:35:00
3:55 AM,33.8,30.2,87,29.52,8.0,West,25.3,33.4,0.05,Snow,Light Snow,260,2013-01-31 08:55:00
4:15 AM,32.0,32.0,100,29.54,0.2,Calm,Calm,-,0.71,Snow,Heavy Snow,0,2013-01-31 09:15:00
4:35 AM,32.0,32.0,100,29.56,0.8,West,17.3,27.6,1.34,Snow,Light Snow,280,2013-01-31 09:35:00
4:55 AM,32.0,30.2,93,29.57,0.8,West,20.7,27.6,1.62,Snow,Light Snow,260,2013-01-31 09:55:00
5:15 AM,32.0,28.4,87,29.58,3.0,West,18.4,33.4,0.10,,Overcast,280,2013-01-31 10:15:00
5:35 AM,32.0,26.6,80,29.60,5.0,West,20.7,46.0,0.10,,Mostly Cloudy,260,2013-01-31 10:35:00
5:55 AM,30.2,24.8,80,29.61,5.0,WSW,24.2,39.1,0.12,,Haze,250,2013-01-31 10:55:00
6:15 AM,30.2,23.0,75,29.63,10.0,West,24.2,36.8,N/A,,Mostly Cloudy,270,2013-01-31 11:15:00
6:35 AM,30.2,23.0,75,29.64,10.0,West,20.7,32.2,N/A,,Mostly Cloudy,260,2013-01-31 11:35:00
6:55 AM,30.2,23.0,75,29.64,9.0,West,15.0,31.1,N/A,,Mostly Cloudy,260,2013-01-31 11:55:00
7:15 AM,30.2,24.8,80,29.65,5.0,SW,13.8,19.6,0.01,Snow,Light Snow,220,2013-01-31 12:15:00
7:35 AM,28.4,26.6,93,29.67,0.5,WSW,19.6,26.5,0.34,Snow,Heavy Snow,240,2013-01-31 12:35:00
7:55 AM,28.4,24.8,86,29.68,5.0,WSW,18.4,27.6,0.62,Rain,Freezing Rain,250,2013-01-31 12:55:00
8:15 AM,30.2,21.2,69,29.69,10.0,West,20.7,29.9,N/A,,Scattered Clouds,260,2013-01-31 13:15:00
8:35 AM,30.2,19.4,64,29.70,10.0,WSW,20.7,33.4,N/A,,Scattered Clouds,250,2013-01-31 13:35:00
8:55 AM,28.4,19.4,69,29.71,9.0,West,17.3,27.6,N/A,Snow,Light Snow,270,2013-01-31 13:55:00
9:15 AM,28.4,21.2,74,29.72,3.0,West,23.0,32.2,0.02,Snow,Light Snow,260,2013-01-31 14:15:00
9:35 AM,28.4,21.2,74,29.73,5.0,West,21.9,31.1,0.03,Snow,Light Snow,260,2013-01-31 14:35:00
9:55 AM,28.4,19.4,69,29.74,10.0,West,23.0,26.5,0.03,,Scattered Clouds,260,2013-01-31 14:55:00
10:15 AM,28.4,19.4,69,29.76,8.0,West,25.3,34.5,N/A,,Mostly Cloudy,260,2013-01-31 15:15:00
10:35 AM,28.4,15.8,59,29.77,2.5,WSW,26.5,35.7,N/A,,Freezing Rain,250,2013-01-31 15:35:00
10:55 AM,28.4,17.6,64,29.78,10.0,WSW,16.1,33.4,N/A,,Scattered Clouds,250,2013-01-31 15:55:00
11:15 AM,28.4,19.4,69,29.78,7.0,WSW,20.7,26.5,N/A,Snow,Light Snow,250,2013-01-31 16:15:00
11:35 AM,26.6,21.2,80,29.79,1.0,WSW,15.0,33.4,0.22,Snow,Snow,240,2013-01-31 16:35:00
11:55 AM,26.6,23.0,86,29.79,0.5,WSW,17.3,24.2,0.82,Snow,Light Snow,250,2013-01-31 16:55:00
12:15 PM,26.6,23.0,86,29.79,1.5,WSW,16.1,23.0,0.08,,Overcast,240,2013-01-31 17:15:00
12:55 PM,26.6,19.4,74,29.78,4.0,WSW,16.1,29.9,0.10,Snow,Light Snow,250,2013-01-31 17:55:00
1:15 PM,26.6,21.2,80,29.78,2.5,West,18.4,27.6,0.04,Snow,Light Snow,260,2013-01-31 18:15:00
1:35 PM,26.6,21.2,80,29.78,2.0,West,10.4,17.3,0.09,Snow,Light Snow,270,2013-01-31 18:35:00
1:55 PM,26.6,23.0,86,29.79,0.2,WNW,12.7,23.0,0.77,Snow,Heavy Snow,290,2013-01-31 18:55:00
2:15 PM,26.6,21.2,80,29.80,2.0,WSW,21.9,31.1,0.06,,Haze,250,2013-01-31 19:15:00
2:35 PM,26.6,21.2,80,29.81,0.2,West,19.6,36.8,0.40,Snow,Heavy Snow,260,2013-01-31 19:35:00
2:55 PM,26.6,21.2,80,29.83,0.8,West,19.6,32.2,0.93,Snow,Light Snow,270,2013-01-31 19:55:00
3:15 PM,26.6,17.6,69,29.84,2.5,West,23.0,27.6,N/A,,Haze,270,2013-01-31 20:15:00
3:35 PM,26.6,14.0,59,29.85,10.0,West,25.3,35.7,N/A,,Clear,260,2013-01-31 20:35:00
3:55 PM,26.6,15.8,64,29.85,10.0,West,13.8,17.3,N/A,,Scattered Clouds,260,2013-01-31 20:55:00
4:15 PM,26.6,15.8,64,29.85,10.0,West,15.0,19.6,N/A,,Mostly Cloudy,280,2013-01-31 21:15:00
4:55 PM,26.6,15.8,64,29.86,9.0,WNW,10.4,19.6,N/A,,Partly Cloudy,290,2013-01-31 21:55:00
5:15 PM,24.8,15.8,69,29.86,10.0,West,10.4,16.1,N/A,,Scattered Clouds,270,2013-01-31 22:15:00
5:35 PM,24.8,17.6,74,29.87,10.0,West,10.4,16.1,N/A,,Mostly Cloudy,280,2013-01-31 22:35:00
5:55 PM,24.8,17.6,74,29.87,10.0,WSW,10.4,-,N/A,,Mostly Cloudy,250,2013-01-31 22:55:00
6:15 PM,24.8,17.6,74,29.87,10.0,SW,9.2,-,N/A,,Partly Cloudy,230,2013-01-31 23:15:00
6:35 PM,24.8,17.6,74,29.87,10.0,WSW,11.5,16.1,N/A,,Partly Cloudy,240,2013-01-31 23:35:00
6:55 PM,26.6,17.6,69,29.87,10.0,WSW,12.7,-,N/A,,Mostly Cloudy,240,2013-01-31 23:55:00
7:15 PM,26.6,17.6,69,29.88,10.0,WSW,10.4,-,N/A,,Overcast,250,2013-02-01 00:15:00
7:35 PM,26.6,17.6,69,29.87,10.0,SW,11.5,-,N/A,,Mostly Cloudy,220,2013-02-01 00:35:00
7:55 PM,24.8,17.6,74,29.87,10.0,SW,10.4,-,N/A,,Clear,220,2013-02-01 00:55:00
8:15 PM,24.8,19.4,80,29.88,10.0,SW,9.2,-,N/A,,Clear,220,2013-02-01 01:15:00
8:35 PM,24.8,19.4,80,29.87,10.0,SW,10.4,-,N/A,,Clear,230,2013-02-01 01:35:00
8:55 PM,24.8,19.4,80,29.87,10.0,SW,10.4,-,N/A,,Partly Cloudy,220,2013-02-01 01:55:00
9:15 PM,26.6,19.4,74,29.87,10.0,SW,9.2,-,N/A,,Mostly Cloudy,220,2013-02-01 02:15:00
9:35 PM,26.6,21.2,80,29.87,4.0,SSW,10.4,-,N/A,,Mostly Cloudy,210,2013-02-01 02:35:00
9:55 PM,24.8,23.0,93,29.86,2.5,SW,8.1,-,0.02,Snow,Light Snow,220,2013-02-01 02:55:00
10:15 PM,24.8,23.0,93,29.86,5.0,SSW,6.9,-,N/A,Snow,Light Snow,200,2013-02-01 03:15:00
10:35 PM,26.6,23.0,86,29.85,3.0,SSW,6.9,-,N/A,Snow,Light Snow,200,2013-02-01 03:35:00
10:55 PM,24.8,24.8,100,29.84,1.8,SSW,6.9,-,0.04,Snow,Light Snow,210,2013-02-01 03:55:00
11:15 PM,26.6,24.8,93,29.83,2.0,SSW,5.8,-,0.01,Snow,Light Snow,210,2013-02-01 04:15:00
11:35 PM,26.6,24.8,93,29.83,2.5,SSW,5.8,-,0.02,Snow,Light Snow,200,2013-02-01 04:35:00
11:55 PM,26.6,24.8,93,29.81,2.0,SSW,8.1,-,0.04,Snow,Light Snow,200,2013-02-01 04:55:00